Regional Weather Roundup
Issued by NWS

Home | Current Version | Previous Version | Graphics & Text | Print | Product List | Glossary On
Versions: 1 2 3 4 5 6 7 8 9 10 11 12 13 14 15 16 17 18 19 20 21 22 23 24 25 26 27 28 29 30 31 32 33 34 35 36 37 38 39 40 41 42 43 44 45 46 47 48 49 50
293
ASUS43 KIND 231700
RWRIN

WEATHER ROUNDUP FOR INDIANA
NATIONAL WEATHER SERVICE INDIANAPOLIS IN
100 PM EDT SUN JUL 23 2017

NOTE: "FAIR" INDICATES FEW OR NO CLOUDS BELOW 12,000 FEET WITH NO
SIGNIFICANT WEATHER AND/OR OBSTRUCTIONS TO VISIBILITY.

* - STATION DOES NOT REPORT WEATHER SUCH AS PRECIPITATION OR FOG.

+ - STATION NOT QUALITY CONTROLLED BY THE NATIONAL WEATHER SERVICE.
    USE DATA WITH CAUTION...ESPECIALLY DEWPOINT AND RELATIVE
    HUMIDITY OBSERVATIONS.

INZ001>003-010>013-019-020-231800-
NORTHWEST INDIANA

CITY           SKY/WX    TMP DP  RH WIND       PRES   REMARKS
GARY /AIRPORT/ PTSUNNY   86  70  58 N6        29.81S
MONTICELLO +   CLOUDY    77  73  88 CALM      29.81S

$$

LMZ046-743>745-231800-
SOUTHERN LAKE MICHIGAN

STATION/POSITION TIME  TEMP    WIND        PRES    WAVE
                       AIR SEA DIR/SP/G            HT
                 (UTC) (F)     (DEG/KT/KT) (MB)    (FT)
BURNS HARBOR     1640   78     340/  4/  5 1009.8S
MICHIGAN CITY    1630   78     270/  2/  2   N/A
5NW MICH CITY    1650   78 77  300/  2/  4   N/A     0

$$

INZ004-005-014>016-021>024-231800-
NORTH CENTRAL INDIANA

CITY           SKY/WX    TMP DP  RH WIND       PRES   REMARKS
GOSHEN         MOSUNNY   82  68  62 SW8       29.80S
SOUTH BEND     MOSUNNY   83  71  67 W8        29.80F

$$

INZ006>009-017-018-025>027-231800-
NORTHEAST INDIANA

CITY           SKY/WX    TMP DP  RH WIND       PRES   REMARKS
FORT WAYNE     CLOUDY    80  71  74 SW6       29.81S
KENDALLVILLE + PTSUNNY   81  71  73 W6        29.82S

$$

INZ028-029-035-036-043>045-051>053-231800-
WEST CENTRAL INDIANA

CITY           SKY/WX    TMP DP  RH WIND       PRES   REMARKS
LAFAYETTE      CLOUDY    80  72  76 NE6       29.82S
TERRE HAUTE    CLOUDY    79  72  79 SW12      29.86S

$$

INZ030>032-037>040-046>048-054>057-064-065-231800-
CENTRAL INDIANA

CITY           SKY/WX    TMP DP  RH WIND       PRES   REMARKS
GREENWOOD *+   CLOUDY   N/A N/A N/A W8        29.85R
INDIANAPOLIS   CLOUDY    80  74  81 W10       29.83R
-EAGLE CREEK   CLOUDY    79  72  79 W8        29.83R
KOKOMO +       LGT RAIN  77  74  90 W8        29.82R
MT COMFORT *+  PTSUNNY   75  70  83 NW3       29.82R
SHELBYVILLE    CLOUDY    78  72  81 W9        29.83R

$$

INZ033-034-041-042-049-050-058-059-231800-
EAST CENTRAL INDIANA

CITY           SKY/WX    TMP DP  RH WIND       PRES   REMARKS
MUNCIE         CLOUDY    77  71  82 SW5       29.81F
RICHMOND +     LGT RAIN  72  70  94 E8        29.79F

$$

INZ060-061-067>069-081>083-085>088-231800-
SOUTHWEST INDIANA

CITY           SKY/WX    TMP DP  RH WIND       PRES   REMARKS
EVANSVILLE     CLOUDY    79  72  79 S8        29.88F
HUNTINGBURG *+ CLOUDY    77  72  84 S12       29.87F

$$

INZ062-063-066-070>080-084-089>092-231800-
SOUTH CENTRAL AND SOUTHEAST INDIANA

CITY           SKY/WX    TMP DP  RH WIND       PRES   REMARKS
BLOOMINGTON    PTSUNNY   77  70  79 SW10      29.87F
MADISON *+     CLOUDY    73  68  83 S10       29.85R
SEYMOUR +      CLOUDY    79  70  73 SW14      29.83R

$$





USA.gov is the U.S. government's official web portal to all federal, state and local government web resources and services.